Find Starlink 32473

NORAD ID: 62049 Int'l Des: 2024-216 Owner: SPXS Country: US Constellation: starlink operational
LEOCIRCULAR

Current View

Loading 3D Globe...

About Starlink 32473

Starlink 32473 (NORAD 62049) is a starlink constellation satellite (v2 mini) launched Nov 21, 2024 by SPXS of US. It operates in LEO, CIRCULAR orbit with a mass of 730.00 kg.

Upcoming Passes

Passes for default location (London). Set your location on the main map for personalized predictions.

Altitude History

Loading altitude history...

Two-Line Element Set

1 62049U 24216T 26263.33698076 .00012285 00000-0 45501-3 0 9993
2 62049 43.0011 237.1244 0001586 275.2796 84.7875 15.27594105102486
Epoch: Sep 20, 2026 • Age: 22 hours

Current Status

Altitude 488.2 km
Apogee / Perigee N/A
Velocity 7.62 km/s
Sub-Earth Point -24.80°S, 113.96°E
Launch Date Nov 21, 2024
Age 1.8 years
Type internet

Technical Details

Classification Payload
Mass 730.00 kg
Dry Mass 700.00 kg
Length 0.30 m
Span 29.00 m
Shape ? Box + pan
Manufacturer SPXS
Bus Type Starlink V2M
Phase Status In Orbit
Owner/State SPXS/US

Most Searched